Overview Statistics Trail Chart Weather Telemetry Raw packets
 

This is the latest recevied weather packets stored in our database for station/object DL2AMT-9. If no packets are shown the sender has not sent any weather packets the latest 10 day(s).

<< 1 2 3 4 5 6 >>
Time Temp. Humidity Pressure Rain* Wind** Luminosity Snow
1777834770 29.44° C 33% 967.2 hPa - - - -
1777834470 28.89° C 32% 967.2 hPa - - - -
1777834170 28.33° C 33% 967.1 hPa - - - -
1777826316 27.78° C 28% 967.4 hPa - - - -
1777826016 28.33° C 28% 967.2 hPa - - - -
1777825716 29.44° C 28% 967.3 hPa - - - -
1777825274 27.78° C 28% 967.4 hPa - - - -
1777824974 28.33° C 27% 967.4 hPa - - - -
1777824674 28.33° C 27% 967.4 hPa - - - -
1777824374 28.89° C 27% 967.4 hPa - - - -
1777824074 29.44° C 27% 967.4 hPa - - - -
1777823549 28.89° C 28% 967.5 hPa - - - -
1777823249 28.89° C 27% 967.5 hPa - - - -
1777822949 28.89° C 27% 967.5 hPa - - - -
1777821969 29.44° C 26% 967.6 hPa - - - -
1777821668 29.44° C 26% 967.6 hPa - - - -
1777821368 29.44° C 25% 967.6 hPa - - - -
1777821067 30° C 25% 967.7 hPa - - - -
1777820768 30° C 25% 967.7 hPa - - - -
1777820467 30.56° C 25% 967.7 hPa - - - -
1777820167 30.56° C 25% 967.8 hPa - - - -
1777819867 30.56° C 24% 967.7 hPa - - - -
1777819566 31.67° C 23% 967.7 hPa - - - -
1777819266 32.22° C 24% 967.8 hPa - - - -
1777818966 32.78° C 23% 967.8 hPa - - - -

* Rain since midnight (hover to see other rain measurements)
** Current wind speed in m/s (hover to see current wind gust speed)